Location: La Trinit�
(48.1620°N, 3.4512°W)
Time: 16:25:10
(UTC+00:00)

X-37B - Pass Details

Date: 08 May 2021
Orbit: 386 x 389 km, 45.0° (Epoch: 10 June)

Event Time Altitude Azimuth Distance (km) Brightness Sun altitude
Rises 21:14:00 0° 268° (W) 2,273 5.1 -13.6°
Reaches altitude 10° 21:16:08 10° 261° (W) 1,417 3.9 -13.9°
Maximum altitude 21:19:10 41° 190° (S) 577 1.1 -14.2°
Enters shadow 21:20:04 32° 148° (SSE) 691 1.3 -14.3°
